Location: Unnamed
(47.6578°N, 23.5640°E)
Time: 22:06:54
(UTC+03:00)

ISS - Pass Details

Date: 04 May 2020
Orbit: 418 x 421 km, 51.6° (Epoch: 08 May)

Event Time Altitude Azimuth Distance (km) Brightness Sun altitude
Exits shadow 04:02:39 49° 220° (SW) 544 -3.7 -16.9°
Maximum altitude 04:03:23 72° 153° (SSE) 443 -3.8 -16.9°
Drops below altitude 10° 04:06:44 10° 68° (ENE) 1,500 0.0 -16.5°
Sets 04:08:51 0° 67° (ENE) 2,367 1.3 -16.2°
